This is the latest recevied weather packets stored in our database for station/object DB7GV-8. If no packets are shown the sender has not sent any weather packets the latest 10 day(s).
| Time | Temp. | Humidity | Pressure | Rain* | Wind** | Luminosity | Snow |
|---|---|---|---|---|---|---|---|
| 1778099730 | 9.44° C | 86% | 1012.4 hPa | - | - | - | - |
| 1778098825 | 9.44° C | 86% | 1012.2 hPa | - | - | - | - |
| 1778097919 | 10° C | 86% | 1012.1 hPa | - | - | - | - |
| 1778097014 | 10° C | 85% | 1011.9 hPa | - | - | - | - |
| 1778096109 | 10.56° C | 84% | 1011.8 hPa | - | - | - | - |
| 1778095203 | 10.56° C | 84% | 1011.8 hPa | - | - | - | - |
| 1778094298 | 10.56° C | 83% | 1011.7 hPa | - | - | - | - |
| 1778093393 | 10.56° C | 82% | 1011.5 hPa | - | - | - | - |
| 1778092487 | 10.56° C | 81% | 1011.2 hPa | - | - | - | - |
| 1778091582 | 11.11° C | 80% | 1011.1 hPa | - | - | - | - |
| 1778090675 | 11.11° C | 79% | 1011 hPa | - | - | - | - |
| 1778089770 | 11.11° C | 79% | 1010.9 hPa | - | - | - | - |
| 1778088865 | 11.67° C | 78% | 1010.8 hPa | - | - | - | - |
| 1778087959 | 11.67° C | 76% | 1010.7 hPa | - | - | - | - |
| 1778087054 | 11.67° C | 74% | 1010.5 hPa | - | - | - | - |
| 1778086149 | 11.67° C | 73% | 1010.3 hPa | - | - | - | - |
| 1778085243 | 11.67° C | 72% | 1010.1 hPa | - | - | - | - |
| 1778084338 | 11.67° C | 71% | 1010.3 hPa | - | - | - | - |
| 1778083433 | 12.22° C | 71% | 1010.4 hPa | - | - | - | - |
| 1778081622 | 12.78° C | 72% | 1010.4 hPa | - | - | - | - |
| 1778080717 | 12.78° C | 74% | 1010.2 hPa | - | - | - | - |
| 1778079811 | 12.78° C | 77% | 1010.1 hPa | - | - | - | - |
| 1778078905 | 12.78° C | 77% | 1010 hPa | - | - | - | - |
| 1778078000 | 12.78° C | 74% | 1010 hPa | - | - | - | - |
| 1778077095 | 12.78° C | 74% | 1009.9 hPa | - | - | - | - |
* Rain since midnight (hover to see other rain measurements)
** Current wind speed in m/s (hover to see current wind gust speed)